Weather Roundup
Issued by NWS Chicago, IL

Home | Current Version | Previous Version | Text Only | Print | Product List | Glossary Off
Versions: 1 2 3 4 5 6 7 8 9 10 11 12 13 14 15 16 17 18 19 20 21 22 23 24 25 26 27 28 29 30 31 32 33 34 35 36 37 38 39 40 41 42 43 44 45 46 47 48 49 50

000
NZUS59 KLOT 220000
HRRLOT

CHICAGO AREA WEATHER ROUNDUP
NATIONAL WEATHER SERVICE CHICAGO/ROMEOVILLE IL
700 PM CDT SUN SEP 21 2014

NOTE: "FAIR" INDICATES FEW OR NO CLOUDS BELOW 12,000 FEET WITH NO
SIGNIFICANT WEATHER AND/OR OBSTRUCTIONS TO VISIBILITY.

* THESE STATIONS ARE NOT UNDER NWS QUALITY CONTROL. THEY ALSO MAY NOT
  REPORT WEATHER SUCH AS PRECIPITATION OR FOG.

ILZ005-006-012>014-019>023-220100-
NORTHEAST ILLINOIS

CITY           SKY/WX    TMP DP  RH WIND       PRES   REMARKS
OHARE          MOCLDY    60  50  69 NE7       30.06R
6HR MIN TEMP:  60; 6HR MAX TEMP:  69;

MIDWAY         MOCLDY    61  51  70 N12       30.06R
6HR MIN TEMP:  61; 6HR MAX TEMP:  70; 6HR PCP: TRACE;

AURORA         CLEAR     58  46  64 N8        30.07R
6HR MIN TEMP:  58; 6HR MAX TEMP:  68;

LANSING*       CLOUDY    59  51  74 N10G16    30.05R
WAUKEGAN       PTCLDY    56  44  64 N6        30.06R
6HR MIN TEMP:  56; 6HR MAX TEMP:  64; 6HR PCP:  0.01;

DUPAGE AIRPORT CLEAR     59  45  59 N9        30.06R
6HR MIN TEMP:  59; 6HR MAX TEMP:  69; 6HR PCP: TRACE;

WHEELING       PTCLDY    58  49  72 CALM      30.07R
6HR MIN TEMP:  58; 6HR MAX TEMP:  70;

NORTHERLY IS     N/A     59  49  69 N14         N/A
$$

WIZ051-052-058>065-066-070>072-220100-
SOUTHEAST WISCONSIN

CITY           SKY/WX    TMP DP  RH WIND       PRES   REMARKS
MILWAUKEE      PTCLDY    55  41  59 N8        30.07R
6HR MIN TEMP:  55; 6HR MAX TEMP:  62; 6HR PCP: TRACE;

KENOSHA*       PTCLDY    54  44  69 N7        30.07R
RACINE*        CLEAR     54  43  66 N10       30.08R
WAUKESHA       PTCLDY    54  43  66 NW12      30.08R
$$

INZ001>003-010>013-019-020-220100-
NORTHWEST INDIANA

CITY           SKY/WX    TMP DP  RH WIND       PRES   REMARKS
GARY*          CLOUDY    61  52  72 N9G21     30.06R
MICHIGAN CITY* NOT AVBL
RENSSELAER*    NOT AVBL
VALPARAISO     CLOUDY    58  50  75 VRB7      30.05R
$$

LMZ740>746-220100-
SOUTHERN LAKE MICHIGAN

STATION/POSITION TIME  SKY/WX   TEMP WIND        PRES    VSBY
                                AIR  DIR/SP/G
                 (UTC)          (F)  (DEG/KT/KT) (MB)    (MI)
HARRISON CRIB    2300            58   10/ 19/ 22   N/A
BURNHAM HARBOR   0000            59  350/ 10/ 16   N/A
CALUMET HARBOR   2300            59  350/ 10/ 15 1016.3R
BURNS HARBOR     NOT AVBL
MICHIGAN CITY    2300            59  350/ 24/ 27   N/A
$$

ABBREVIATIONS USED IN REMARKS
   TC - TEMPERATURE IN CELSIUS
  WCI - WIND CHILL INDEX
   HX - HEAT INDEX
  VSB - VISIBILITY
$$



USA.gov is the U.S. government's official web portal to all federal, state and local government web resources and services.